[[{"header":{"parameterUnit":"m.s-1","parameterCategory":1,"la1":30.2991,"la2":30.254,"lo1":-89.0895,"lo2":-89.0444,"dy":0.0017,"dx":0.0017,"nx":28,"ny":28,"refTime":"2024-10-13T09:00:00:Z","depth":0,"parameterNumber":2,"parameterNumberName":"U-component_of_WINDS"},"data":[0,0,0,0,0,0,0,0,0,0,0,0,0,0,0,0,0,0,0,0,0,0,0,0,0,0,0,0,0,0,0,0,0,0,0,0,0,0,0,0,0,0,0,0,0,0,0,0,0,0,0,0,0,0,0,0,0,0,4.368,4.3681,0,4.3794,4.3795,4.3796,4.3696,4.3692,4.3688,4.3684,4.3802,4.3809,4.3816,0,0,0,0,0,0,0,0,0,0,0,0,0,4.3378,4.3384,4.368,4.3681,4.3683,4.3794,4.3795,4.3797,4.3697,4.3692,4.3687,4.3682,4.38,4.3808,4.3816,0,0,0,0,0,0,0,0,0,0,0,0,0,4.3502,4.3386,4.368,4.3646,4.3645,4.3793,4.3795,4.3797,4.3698,4.3692,4.3686,4.368,4.3797,4.3807,4.3818,4.4006,0,0,4.385,4.3854,0,0,0,0,0,0,0,0,4.3495,4.3513,4.365,4.3649,4.3647,4.3725,4.3732,4.3867,4.37,4.3678,4.3684,4.3677,4.3781,4.3793,4.3828,4.4011,4.4016,4.385,4.3857,4.3861,4.3864,0,0,0,0,0,0,0,4.3487,4.3508,4.3725,4.3652,4.365,4.3626,4.3637,4.3757,4.3763,4.3679,4.3672,4.3687,4.3779,4.3818,4.383,4.4018,4.385,4.3859,4.3866,4.387,4.4361,4.4367,0,0,0,0,0,0,4.3481,4.3501,4.3721,4.3728,4.3554,4.3637,4.3649,4.3706,4.3761,4.3764,4.3692,4.3682,4.3803,4.3818,4.3834,4.4056,4.3861,4.3871,4.3877,4.4354,4.4362,4.437,0,0,0,0,0,0,4.3475,4.3502,4.3717,4.3613,4.3639,4.3648,4.3713,4.3711,4.3749,4.3771,4.3772,4.373,4.3799,4.3819,4.3963,4.4058,4.3876,4.3885,4.4346,4.4357,4.4366,4.4503,0,0,0,0,0,0,4.3467,4.35,4.3571,4.3615,4.3644,4.3844,4.3719,4.3718,4.3768,4.3755,4.3807,4.3809,4.3795,4.3948,4.3974,4.407,4.3893,4.4337,4.4351,4.4363,4.449,4.4516,4.4539,0,0,0,0,0,4.3457,4.3606,4.3575,4.3602,4.3733,4.385,4.3867,4.3847,4.3776,4.3847,4.3861,4.3808,4.4045,4.3964,4.3992,4.4092,4.4331,4.4347,4.4362,4.4479,4.4511,4.4539,0,0,0,0,0,0,4.3572,4.3611,4.3577,4.3745,4.3795,4.3833,4.3922,4.3882,4.3954,4.3939,4.3913,4.3925,4.4077,4.41,4.4009,4.4277,4.4177,4.4198,4.4256,4.4287,4.4311,4.4301,4.3902,0,0,0,0,0,4.3618,4.3709,4.3738,4.3883,4.391,4.3913,4.3963,4.3943,4.3994,4.4015,4.4039,4.4091,4.4176,4.4233,4.4314,4.4494,4.4503,4.4577,4.4602,4.4622,4.464,4.4735,4.4768,4.442,4.4419,4.4419,0,0,4.3712,4.3744,4.3803,4.3907,4.3943,4.4039,4.3931,4.4036,4.4106,4.4031,4.4167,4.4188,4.4244,4.4407,4.448,4.443,4.4739,4.4641,4.4657,4.4664,4.4754,4.4787,4.4817,4.443,4.4428,4.4426,0,0,4.3931,4.3965,4.4089,4.4128,4.4185,4.4186,4.4216,4.426,4.4271,4.4408,4.4353,4.4437,4.4586,4.4628,4.4669,4.4906,4.4859,4.4933,4.5061,4.5155,4.5182,4.5206,4.5289,4.5319,4.4952,4.4952,4.4952,0,4.404,4.4181,4.4158,4.4268,4.4315,4.4252,4.4377,4.4416,4.4497,4.4531,4.4474,4.466,4.4693,4.4864,4.4922,4.4958,4.4991,4.4925,4.518,4.5204,4.5226,4.5305,4.5336,4.4961,4.496,4.4959,4.4958,0,4.4312,4.4411,4.4504,4.4583,4.4641,4.4758,4.4754,4.4816,4.4793,4.48,4.4941,4.4979,4.5065,4.5105,4.5084,4.5274,4.5241,4.5184,4.5081,4.5268,4.5341,4.5371,4.4973,4.497,4.4967,4.4965,0,0,4.4604,4.467,4.4704,4.4739,4.4798,4.4873,4.4989,4.5073,4.5126,4.5185,4.5279,4.5408,4.5354,4.5401,4.5384,4.5467,4.565,4.5398,4.5399,4.5442,4.586,4.5901,4.5936,4.5621,4.5627,4.5631,4.5855,0,4.4823,4.5021,4.5006,4.5193,4.5283,4.5226,4.5326,4.5373,4.5384,4.5463,4.5474,4.5565,4.5489,4.5516,4.5596,4.5611,4.5733,4.5595,4.5708,4.5712,4.5692,4.5975,4.6018,4.6227,4.5883,4.5888,4.5892,0,4.5104,4.5172,4.5369,4.5414,4.5451,4.5541,4.5617,4.5694,4.5746,4.5748,4.5801,4.5771,4.5887,4.5785,4.5944,4.585,4.5896,4.5911,4.5919,4.5926,4.5811,4.5987,4.6293,4.6324,4.5937,4.5934,4.593,0,4.5295,4.5436,4.5571,4.5603,4.566,4.5724,4.5751,4.5797,4.5849,4.5917,4.595,4.6031,4.6074,4.6138,4.613,4.6057,4.6291,4.6189,4.6295,4.6295,4.6344,4.6341,4.6659,4.6379,4.6379,4.6378,4.6378,0,4.5539,4.5661,4.5657,4.574,4.5875,4.5857,4.5991,4.6011,4.6053,4.6139,4.6096,4.6178,4.6164,4.6246,4.6241,4.6373,4.6394,4.6398,4.6394,4.64,4.6399,4.6427,4.6411,4.6387,4.6385,4.6383,4.6382,0,4.5773,4.5775,4.5919,4.5961,4.5975,4.6073,4.6109,4.6187,4.6195,4.6305,4.6329,4.6342,4.6436,4.6436,4.6544,4.6541,4.6701,4.6683,4.6683,4.6678,4.6783,4.6772,4.7128,4.7173,4.6867,4.687,4.6872,0,4.5927,4.6019,4.6072,4.6126,4.6157,4.6246,4.6298,4.6285,4.6342,4.641,4.648,4.6571,4.6642,4.6795,4.6814,4.6897,4.6878,4.6998,4.689,4.6892,4.6877,4.687,4.6878,4.7017,4.7021,4.7024,4.7026,0,4.62,4.6197,4.6274,4.6353,4.6417,4.6479,4.6535,4.6583,4.6576,4.6642,4.6738,4.6793,4.6903,4.6993,4.7073,4.7101,4.7062,4.706,4.7088,4.7093,4.7088,4.709,4.6737,4.7051,4.7049,4.7047,4.7045,4.7044,4.6396,4.6475,4.6525,4.6613,4.6654,4.6708,4.6784,4.6802,4.6881,4.6969,4.6958,4.7064,4.7116,4.7219,4.7254,4.7337,4.7295,4.7337,4.7347,4.7357,4.7367,4.7078,4.7352,4.7351,4.7351,4.735,4.735,0,4.6664,4.6694,4.6775,4.6856,4.6925,4.6884,4.6945,4.7006,4.71,4.7151,4.7222,4.7332,4.742,4.7447,4.7531,4.7593,4.7577,4.7615,4.7609,4.7616,4.7401,4.7366,4.7626,4.7626,4.7626,4.7626,4.7626,4.7626,4.6812,4.6943,4.6946,4.7098,4.7126,4.723,4.7268,4.7318,4.7358,4.7483,4.7555,4.7573,4.7614,4.7701,4.778,4.7786,4.7817,4.7862,4.7861,4.7659,4.7631,4.7604,4.7571,4.787,4.787,4.8068,4.807,4.8071]},{"header":{"parameterUnit":"m.s-1","parameterCategory":1,"la1":30.2991,"la2":30.254,"lo1":-89.0895,"lo2":-89.0444,"dy":0.0017,"dx":0.0017,"nx":28,"ny":28,"refTime":"2024-10-13T09:00:00:Z","depth":0,"parameterNumber":3,"parameterNumberName":"V-component_of_WINDS"},"data":[0,0,0,0,0,0,0,0,0,0,0,0,0,0,0,0,0,0,0,0,0,0,0,0,0,0,0,0,0,0,0,0,0,0,0,0,0,0,0,0,0,0,0,0,0,0,0,0,0,0,0,0,0,0,0,0,0,0,1.661,1.6611,0,1.6685,1.6686,1.6687,1.6675,1.6674,1.6672,1.6671,1.6746,1.6749,1.6752,0,0,0,0,0,0,0,0,0,0,0,0,0,1.6453,1.6456,1.661,1.6611,1.6612,1.6685,1.6686,1.6687,1.6675,1.6674,1.6672,1.6671,1.6745,1.6749,1.6753,0,0,0,0,0,0,0,0,0,0,0,0,0,1.6524,1.6457,1.6609,1.6615,1.6616,1.6685,1.6686,1.6687,1.6676,1.6674,1.6672,1.667,1.6744,1.6748,1.6753,1.6821,0,0,1.6768,1.677,0,0,0,0,0,0,0,0,1.652,1.653,1.6613,1.6614,1.6616,1.6669,1.6658,1.6732,1.6676,1.6653,1.6671,1.6669,1.6722,1.6728,1.6746,1.6824,1.6828,1.6768,1.6771,1.6773,1.6774,0,0,0,0,0,0,0,1.6515,1.6527,1.6639,1.6614,1.6616,1.6612,1.662,1.6672,1.6697,1.6655,1.6654,1.6663,1.6722,1.6742,1.6748,1.6829,1.6768,1.6772,1.6775,1.6777,1.6965,1.6967,0,0,0,0,0,0,1.6509,1.6523,1.6637,1.6642,1.6562,1.6617,1.6626,1.6654,1.6696,1.6701,1.6665,1.6662,1.6735,1.6743,1.6751,1.6833,1.6773,1.6778,1.678,1.6963,1.6966,1.6968,0,0,0,0,0,0,1.6506,1.652,1.6634,1.6582,1.6596,1.6621,1.6653,1.6656,1.6676,1.6704,1.6708,1.6681,1.6733,1.6744,1.6804,1.6835,1.678,1.6784,1.6961,1.6964,1.6967,1.6997,0,0,0,0,0,0,1.6502,1.6518,1.6545,1.6583,1.6599,1.6686,1.6655,1.6659,1.6684,1.6682,1.672,1.6724,1.6733,1.6797,1.6808,1.6841,1.6788,1.6958,1.6962,1.6966,1.6993,1.7001,1.7007,0,0,0,0,0,1.6496,1.655,1.6547,1.656,1.6633,1.6688,1.6698,1.6707,1.6687,1.6714,1.6732,1.6723,1.683,1.6803,1.6816,1.685,1.6956,1.6961,1.6966,1.699,1.6999,1.7007,0,0,0,0,0,0,1.6515,1.6555,1.6552,1.662,1.6651,1.6686,1.672,1.6716,1.6753,1.6749,1.6758,1.6767,1.6827,1.6845,1.6814,1.6918,1.689,1.6898,1.6904,1.6913,1.692,1.6914,1.6792,0,0,0,0,0,1.6527,1.6569,1.6602,1.6659,1.6675,1.6695,1.6719,1.6724,1.6756,1.6769,1.6791,1.6822,1.6862,1.6889,1.6927,1.6996,1.7003,1.7026,1.7033,1.7038,1.7045,1.7082,1.7092,1.6984,1.6984,1.6984,0,0,1.6553,1.658,1.6606,1.6663,1.6688,1.6731,1.6706,1.6752,1.6784,1.6775,1.6833,1.6851,1.6886,1.695,1.6979,1.6966,1.7076,1.7044,1.7049,1.7052,1.7088,1.7098,1.7107,1.6987,1.6987,1.6986,0,0,1.6621,1.6646,1.6696,1.6721,1.6759,1.6772,1.6784,1.682,1.6832,1.689,1.6884,1.6922,1.6991,1.7016,1.7038,1.7115,1.7109,1.7128,1.7164,1.72,1.7208,1.7216,1.7243,1.7253,1.7134,1.7134,1.7134,0,1.6648,1.6713,1.6722,1.6769,1.6794,1.6789,1.684,1.6863,1.6911,1.6929,1.6913,1.7,1.7024,1.7093,1.7112,1.713,1.7144,1.7123,1.7207,1.7214,1.7221,1.7247,1.7258,1.7136,1.7136,1.7136,1.7135,0,1.6743,1.6789,1.6824,1.6872,1.6901,1.6949,1.6965,1.6993,1.6995,1.7009,1.7068,1.7096,1.714,1.7157,1.7159,1.7227,1.7218,1.7205,1.7177,1.7234,1.7258,1.7268,1.7139,1.7138,1.7138,1.7137,0,0,1.6826,1.6878,1.6891,1.6912,1.6953,1.6988,1.7036,1.7079,1.7103,1.7136,1.7176,1.7235,1.7223,1.7248,1.7252,1.7284,1.7343,1.7267,1.7268,1.728,1.7419,1.7428,1.744,1.7339,1.7341,1.7342,1.7416,0,1.6898,1.6983,1.6993,1.7069,1.711,1.7106,1.7147,1.7177,1.7191,1.7228,1.7243,1.7285,1.7266,1.7281,1.7312,1.7329,1.7371,1.7324,1.7375,1.7377,1.7366,1.7453,1.7463,1.7531,1.7425,1.7427,1.7428,0,1.6993,1.703,1.711,1.7145,1.7163,1.72,1.7241,1.7276,1.7309,1.7317,1.7345,1.7345,1.7393,1.7364,1.743,1.7398,1.742,1.7431,1.7434,1.7439,1.7406,1.7459,1.7553,1.7563,1.7444,1.7442,1.7441,0,1.7045,1.7114,1.7171,1.7189,1.7232,1.7258,1.7277,1.7308,1.7333,1.7368,1.7385,1.7425,1.7447,1.7478,1.7488,1.7466,1.7554,1.7526,1.7562,1.7561,1.758,1.7579,1.7678,1.7595,1.7594,1.7594,1.7594,0,1.7124,1.7173,1.7195,1.723,1.7284,1.7294,1.7348,1.7365,1.7393,1.743,1.7429,1.7464,1.7476,1.7513,1.7522,1.7575,1.7585,1.7592,1.7594,1.7592,1.7591,1.7606,1.7602,1.7597,1.7596,1.7596,1.7595,0,1.719,1.7207,1.7269,1.7304,1.7314,1.7353,1.7383,1.7416,1.743,1.7477,1.7489,1.7511,1.7554,1.7568,1.762,1.7626,1.7688,1.7685,1.7677,1.7677,1.7712,1.7708,1.7824,1.7839,1.7746,1.7747,1.7748,0,1.724,1.7278,1.7317,1.7343,1.7363,1.7404,1.743,1.7441,1.7468,1.7508,1.7537,1.758,1.7615,1.7684,1.7704,1.7743,1.7742,1.7779,1.7748,1.7745,1.7742,1.7739,1.7743,1.7785,1.7786,1.7787,1.7788,0,1.7325,1.7332,1.737,1.7411,1.7443,1.7476,1.7507,1.7528,1.7544,1.7574,1.7619,1.7646,1.77,1.7742,1.7783,1.7801,1.7797,1.7798,1.7808,1.7806,1.78,1.7803,1.7693,1.7795,1.7794,1.7794,1.7793,1.7793,1.7384,1.7418,1.7451,1.7493,1.7518,1.7548,1.7581,1.7599,1.7637,1.7682,1.7686,1.7734,1.7765,1.7819,1.784,1.7877,1.7866,1.7881,1.7885,1.7888,1.789,1.7794,1.7884,1.7884,1.7884,1.7884,1.7883,0,1.7469,1.749,1.753,1.7574,1.7608,1.7602,1.7636,1.7664,1.7707,1.7737,1.7772,1.7823,1.7864,1.7887,1.7928,1.7953,1.7952,1.7963,1.7961,1.7965,1.7898,1.7885,1.7963,1.7963,1.7963,1.7963,1.7963,1.7963,1.7517,1.7573,1.7583,1.7651,1.7672,1.772,1.774,1.7767,1.7791,1.7848,1.7882,1.7898,1.7924,1.7967,1.8004,1.801,1.8025,1.8037,1.8042,1.7978,1.797,1.7962,1.795,1.804,1.8041,1.8105,1.8106,1.8107]}]]